DECAYED

OBJECT AV, 43801 (Decayed)

Orbit data source: Space-Track

You're viewing an Uncataloged Satellite

Recently launched and/or uncataloged satellites may have evolving metadata. Metadata may include but not limited to: Owner, Maufacturer, Bus, Motor, and Mission.

OBJECT AV, 43801 was a satellite in LEO that was launched on Mon, 03 Dec 2018 UTC via an FALCON 9 launch vehicle from the Air Force Western Test Range (AFWTR). Unknown objects in Earth's orbit typically refer to objects detected orbiting the Earth but have not yet been identified or cataloged. These objects could be anything from previously untracked satellites, spent rocket stages, debris from satellite collisions, or even natural meteoroids temporarily captured by Earth's gravity. This object's orbit decayed before it could be identified.

Not visible in the next 10 days
Identifier
43801, 2018-099AV
Orbit
Decayed
Last TLE update
3 months ago
Origin
Flag of TBDKAIST/KAFA (TBD)
Manufacturer
KAFA
Mission
Decayed Civil Technology
Bus & Motor
CUBESAT 3U, Unknown motor
Mass
4 kg wet, 4 kg dry
Launch date (UTC)
2018-12-03 (6 years ago)
Launch vehicle
FALCON 9
Launch site
Air Force Western Test Range (AFWTR)
Object type
Unknown
Shape & HBR
Box, 0.3 m
Radar Cross Section
0.035 m², Small (<0.1 m²)

Expand to show TLE details & history

TLE from 3 months ago
0 OBJECT AV
1 43801U 18099AV  25043.64122001  .06767571  24241-5  19069-2 0  9997
2 43801  97.3348 119.0287 0009390 287.1501  72.8764 16.27654057340212
Epoch: 2025-02-12T15:23Z
Definitive object data (Epoch: 2025-02-12T15:23:21.408Z)
Latitude
-0.00001°
Longitude
105.26073°
Altitude
200.275 km
Speed
7.787 km/s
True Right ascension
07h 56m 06s
True Declination
0° 00' 00"
Sunlit
Object was in full shadow at TLE epoch
Visualization observer readout
Visualization observer readout
Orbital elements
Apogee altitude
201.845 km
Perigee altitude
189.5 km
Semi-major axis
6,573.81 km
Eccentricity
0.000939
Inclination
97.3348°
RAAN
119.0287°
Arg. of periapsis
287.1501°
True anomaly
72.97927°
Mean anomaly
72.8764°
Eccentric anomaly
72.92783°
Mean motion
4.07209 °/min
BSTAR
0.0019069
Orbital period
88.41 mins
Loading maneuver chart data...
Loading SW <> Apogee altitude chart data...
Loading historical data...
Loading historical data...
Loading historical data...
Loading historical data...
Loading historical data...
Loading historical data...
Loading historical data...

OBJECT AV Visibility forecast

Observer location: undefined°, undefined°

This satellite is decayed
Span
Click to sort rows by Start time (UTC) header in descending order
Start Az.
Max El. time (UTC)
Max El. Az.
Max El.
End time (UTC)
End Az.
|